Year,Month,Day,Hour,Minute,Value (Times are PST for windgust in km/hr)
2011,01,15,00,00,1.60
2011,01,15,00,03,3.20
2011,01,15,00,04,1.60
2011,01,15,00,05,3.20
2011,01,15,00,06,4.80
2011,01,15,00,07,3.20
2011,01,15,00,09,1.60
2011,01,15,00,11,9.60
2011,01,15,00,12,6.40
2011,01,15,00,14,6.40
2011,01,15,00,15,6.40
2011,01,15,00,16,4.80
2011,01,15,00,17,6.40
2011,01,15,00,18,6.40
2011,01,15,00,19,3.20
2011,01,15,00,20,8.10
2011,01,15,00,21,6.40
2011,01,15,00,22,1.60
2011,01,15,00,23,4.80
2011,01,15,00,24,1.60
2011,01,15,00,25,6.40
2011,01,15,00,26,6.40
2011,01,15,00,27,6.40
2011,01,15,00,28,3.20
2011,01,15,00,30,3.20
2011,01,15,00,31,6.40
2011,01,15,00,34,1.60
2011,01,15,00,35,4.80
2011,01,15,00,36,3.20
2011,01,15,00,37,1.60
2011,01,15,00,38,3.20
2011,01,15,00,39,3.20
2011,01,15,00,40,4.80
2011,01,15,00,41,3.20
2011,01,15,00,42,1.60
2011,01,15,00,43,6.40
2011,01,15,00,44,6.40
2011,01,15,00,45,3.20
2011,01,15,00,46,8.10
2011,01,15,00,47,8.10
2011,01,15,00,48,3.20
2011,01,15,00,49,4.80
2011,01,15,00,50,3.20
2011,01,15,00,51,1.60
2011,01,15,00,52,3.20
2011,01,15,00,53,8.10
2011,01,15,00,54,11.30
2011,01,15,00,55,11.30
2011,01,15,00,56,4.80
2011,01,15,00,57,19.30
2011,01,15,00,58,20.90
2011,01,15,00,59,20.90
2011,01,15,01,00,9.60
2011,01,15,01,01,4.80
2011,01,15,01,02,6.40
2011,01,15,01,03,17.70
2011,01,15,01,04,20.90
2011,01,15,01,05,9.60
2011,01,15,01,06,8.10
2011,01,15,01,07,16.10
2011,01,15,01,08,11.30
2011,01,15,01,09,4.80
2011,01,15,01,10,20.90
2011,01,15,01,11,20.90
2011,01,15,01,12,9.60
2011,01,15,01,13,12.90
2011,01,15,01,14,9.60
2011,01,15,01,15,8.10
2011,01,15,01,16,6.40
2011,01,15,01,17,14.50
2011,01,15,01,18,17.70
2011,01,15,01,19,8.10
2011,01,15,01,20,16.10
2011,01,15,01,21,6.40
2011,01,15,01,22,17.70
2011,01,15,01,23,14.50
2011,01,15,01,24,9.60
2011,01,15,01,25,16.10
2011,01,15,01,26,19.30
2011,01,15,01,27,35.40
2011,01,15,01,28,14.50
2011,01,15,01,29,11.30
2011,01,15,01,30,20.90
2011,01,15,01,31,20.90
2011,01,15,01,32,19.30
2011,01,15,01,33,17.70
2011,01,15,01,34,27.40
2011,01,15,01,35,16.10
2011,01,15,01,36,16.10
2011,01,15,01,37,24.20
2011,01,15,01,38,22.50
2011,01,15,01,39,20.90
2011,01,15,01,40,17.70
2011,01,15,01,41,17.70
2011,01,15,01,42,24.20
2011,01,15,01,43,24.20
2011,01,15,01,44,14.50
2011,01,15,01,45,14.50
2011,01,15,01,46,14.50
2011,01,15,01,47,9.60
2011,01,15,01,48,11.30
2011,01,15,01,49,22.50
2011,01,15,01,50,14.50
2011,01,15,01,51,12.90
2011,01,15,01,52,19.30
2011,01,15,01,53,22.50
2011,01,15,01,54,24.20
2011,01,15,01,55,16.10
2011,01,15,01,56,9.60
2011,01,15,01,57,17.70
2011,01,15,01,58,9.60
2011,01,15,01,59,11.30
2011,01,15,02,00,17.70
2011,01,15,02,01,17.70
2011,01,15,02,02,8.10
2011,01,15,02,03,6.40
2011,01,15,02,04,14.50
2011,01,15,02,05,19.30
2011,01,15,02,06,16.10
2011,01,15,02,07,11.30
2011,01,15,02,08,8.10
2011,01,15,02,09,6.40
2011,01,15,02,10,12.90
2011,01,15,02,11,6.40
2011,01,15,02,12,8.10
2011,01,15,02,13,16.10
2011,01,15,02,14,16.10
2011,01,15,02,15,6.40
2011,01,15,02,16,1.60
2011,01,15,02,17,11.30
2011,01,15,02,18,11.30
2011,01,15,02,19,14.50
2011,01,15,02,20,19.30
2011,01,15,02,21,9.60
2011,01,15,02,22,17.70
2011,01,15,02,23,11.30
2011,01,15,02,24,8.10
2011,01,15,02,25,8.10
2011,01,15,02,26,9.60
2011,01,15,02,27,8.10
2011,01,15,02,28,9.60
2011,01,15,02,29,8.10
2011,01,15,02,30,16.10
2011,01,15,02,31,11.30
2011,01,15,02,32,11.30
2011,01,15,02,33,8.10
2011,01,15,02,34,8.10
2011,01,15,02,35,16.10
2011,01,15,02,36,16.10
2011,01,15,02,37,1.60
2011,01,15,02,39,6.40
2011,01,15,02,40,11.30
2011,01,15,02,41,9.60
2011,01,15,02,42,3.20
2011,01,15,02,46,1.60
2011,01,15,02,48,6.40
2011,01,15,02,49,9.60
2011,01,15,02,50,6.40
2011,01,15,02,51,1.60
2011,01,15,02,52,1.60
2011,01,15,02,53,3.20
2011,01,15,02,55,8.10
2011,01,15,02,56,9.60
2011,01,15,02,57,3.20
2011,01,15,02,58,1.60
2011,01,15,02,59,1.60
2011,01,15,03,00,6.40
2011,01,15,03,01,6.40
2011,01,15,03,02,3.20
2011,01,15,03,03,1.60
2011,01,15,03,04,9.60
2011,01,15,03,05,1.60
2011,01,15,03,06,1.60
2011,01,15,03,07,3.20
2011,01,15,03,09,4.80
2011,01,15,03,10,4.80
2011,01,15,03,11,8.10
2011,01,15,03,12,6.40
2011,01,15,03,13,6.40
2011,01,15,03,14,8.10
2011,01,15,03,15,8.10
2011,01,15,03,16,6.40
2011,01,15,03,17,9.60
2011,01,15,03,18,8.10
2011,01,15,03,19,9.60
2011,01,15,03,20,11.30
2011,01,15,03,21,16.10
2011,01,15,03,22,11.30
2011,01,15,03,23,17.70
2011,01,15,03,24,16.10
2011,01,15,03,25,4.80
2011,01,15,03,27,1.60
2011,01,15,03,28,1.60
2011,01,15,03,29,3.20
2011,01,15,03,30,6.40
2011,01,15,03,31,3.20
2011,01,15,03,32,11.30
2011,01,15,03,33,4.80
2011,01,15,03,34,1.60
2011,01,15,03,37,3.20
2011,01,15,03,38,4.80
2011,01,15,03,39,3.20
2011,01,15,03,40,6.40
2011,01,15,03,41,4.80
2011,01,15,03,42,6.40
2011,01,15,03,43,8.10
2011,01,15,03,44,6.40
2011,01,15,03,45,6.40
2011,01,15,03,48,3.20
2011,01,15,03,49,4.80
2011,01,15,03,50,1.60
2011,01,15,03,53,3.20
2011,01,15,03,54,3.20
2011,01,15,03,55,1.60
2011,01,15,03,57,3.20
2011,01,15,03,58,6.40
2011,01,15,03,59,8.10
2011,01,15,04,01,6.40
2011,01,15,04,02,11.30
2011,01,15,04,03,9.60
2011,01,15,04,04,8.10
2011,01,15,04,05,3.20
2011,01,15,04,06,8.10
2011,01,15,04,07,8.10
2011,01,15,04,08,8.10
2011,01,15,04,09,12.90
2011,01,15,04,10,11.30
2011,01,15,04,11,8.10
2011,01,15,04,12,14.50
2011,01,15,04,13,11.30
2011,01,15,04,14,11.30
2011,01,15,04,15,9.60
2011,01,15,04,16,9.60
2011,01,15,04,17,9.60
2011,01,15,04,18,8.10
2011,01,15,04,19,14.50
2011,01,15,04,20,9.60
2011,01,15,04,21,14.50
2011,01,15,04,22,11.30
2011,01,15,04,23,14.50
2011,01,15,04,24,17.70
2011,01,15,04,25,25.70
2011,01,15,04,26,24.20
2011,01,15,04,27,19.30
2011,01,15,04,28,25.70
2011,01,15,04,29,29.00
2011,01,15,04,30,17.70
2011,01,15,04,31,27.40
2011,01,15,04,32,14.50
2011,01,15,04,33,11.30
2011,01,15,04,34,16.10
2011,01,15,04,35,24.20
2011,01,15,04,36,22.50
2011,01,15,04,37,20.90
2011,01,15,04,38,17.70
2011,01,15,04,39,22.50
2011,01,15,04,40,16.10
2011,01,15,04,41,16.10
2011,01,15,04,42,22.50
2011,01,15,04,43,22.50
2011,01,15,04,44,25.70
2011,01,15,04,45,22.50
2011,01,15,04,46,25.70
2011,01,15,04,47,22.50
2011,01,15,04,48,20.90
2011,01,15,04,49,17.70
2011,01,15,04,50,19.30
2011,01,15,04,51,14.50
2011,01,15,04,52,14.50
2011,01,15,04,53,8.10
2011,01,15,04,54,8.10
2011,01,15,04,55,6.40
2011,01,15,04,56,4.80
2011,01,15,04,58,1.60
2011,01,15,04,59,1.60
2011,01,15,05,01,1.60
2011,01,15,05,03,1.60
2011,01,15,05,04,4.80
2011,01,15,05,05,4.80
2011,01,15,05,06,4.80
2011,01,15,05,07,8.10
2011,01,15,05,08,4.80
2011,01,15,05,09,6.40
2011,01,15,05,10,6.40
2011,01,15,05,11,4.80
2011,01,15,05,12,4.80
2011,01,15,05,16,1.60
2011,01,15,05,17,1.60
2011,01,15,05,18,3.20
2011,01,15,05,19,1.60
2011,01,15,05,20,1.60
2011,01,15,05,34,1.60
2011,01,15,05,35,3.20
2011,01,15,05,36,3.20
2011,01,15,05,37,3.20
2011,01,15,05,38,3.20
2011,01,15,05,39,1.60
2011,01,15,05,40,1.60
2011,01,15,05,41,1.60
2011,01,15,05,42,3.20
2011,01,15,05,43,1.60
2011,01,15,05,44,1.60
2011,01,15,05,51,1.60
2011,01,15,05,52,3.20
2011,01,15,05,53,3.20
2011,01,15,05,54,1.60
2011,01,15,05,55,1.60
2011,01,15,05,56,3.20
2011,01,15,05,57,3.20
2011,01,15,06,07,1.60
2011,01,15,06,13,1.60
2011,01,15,06,16,1.60
2011,01,15,06,19,1.60
2011,01,15,06,28,3.20
2011,01,15,06,29,3.20
2011,01,15,06,30,3.20
2011,01,15,06,31,6.40
2011,01,15,06,32,6.40
2011,01,15,06,33,6.40
2011,01,15,06,34,4.80
2011,01,15,06,35,4.80
2011,01,15,06,36,4.80
2011,01,15,06,37,4.80
2011,01,15,06,38,4.80
2011,01,15,06,39,3.20
2011,01,15,06,40,3.20
2011,01,15,06,41,1.60
2011,01,15,06,42,1.60
2011,01,15,06,43,1.60
2011,01,15,06,46,1.60
2011,01,15,06,53,1.60
2011,01,15,06,55,1.60
2011,01,15,07,04,1.60
2011,01,15,07,05,3.20
2011,01,15,07,13,1.60
2011,01,15,07,14,3.20
2011,01,15,07,15,3.20
2011,01,15,07,16,1.60
2011,01,15,07,19,1.60
2011,01,15,07,20,1.60
2011,01,15,07,21,1.60
2011,01,15,07,23,1.60
2011,01,15,07,27,1.60
2011,01,15,07,28,1.60
2011,01,15,07,38,1.60
2011,01,15,07,47,1.60
2011,01,15,07,57,1.60
2011,01,15,07,59,1.60
2011,01,15,08,01,1.60
2011,01,15,08,02,3.20
2011,01,15,08,03,1.60
2011,01,15,08,09,1.60
2011,01,15,08,10,1.60
2011,01,15,08,12,1.60
2011,01,15,08,14,1.60
2011,01,15,08,16,3.20
2011,01,15,08,17,3.20
2011,01,15,08,18,1.60
2011,01,15,08,21,1.60
2011,01,15,08,30,1.60
2011,01,15,08,32,1.60
2011,01,15,08,33,1.60
2011,01,15,08,34,3.20
2011,01,15,08,35,3.20
2011,01,15,08,36,3.20
2011,01,15,08,37,1.60
2011,01,15,08,43,1.60
2011,01,15,08,46,1.60
2011,01,15,08,47,1.60
2011,01,15,08,49,4.80
2011,01,15,08,50,4.80
2011,01,15,08,51,3.20
2011,01,15,08,52,3.20
2011,01,15,08,55,3.20
2011,01,15,08,56,3.20
2011,01,15,09,47,1.60
2011,01,15,09,48,1.60
2011,01,15,09,54,1.60
2011,01,15,10,32,3.20
2011,01,15,10,33,4.80
2011,01,15,10,34,4.80
2011,01,15,10,35,4.80
2011,01,15,10,36,3.20
2011,01,15,10,37,1.60
2011,01,15,10,39,1.60
2011,01,15,10,57,3.20
2011,01,15,10,58,3.20
2011,01,15,10,59,1.60
2011,01,15,11,00,1.60
2011,01,15,11,08,1.60
2011,01,15,11,09,1.60
2011,01,15,11,14,3.20
2011,01,15,11,15,3.20
2011,01,15,11,35,1.60
2011,01,15,11,36,3.20
2011,01,15,11,37,3.20
2011,01,15,11,38,1.60
2011,01,15,11,47,1.60
2011,01,15,11,48,1.60
2011,01,15,11,51,1.60
2011,01,15,11,52,1.60
2011,01,15,11,53,3.20
2011,01,15,11,54,3.20
2011,01,15,11,55,4.80
2011,01,15,11,56,1.60
2011,01,15,12,00,3.20
2011,01,15,12,01,1.60
2011,01,15,12,12,1.60
2011,01,15,12,13,4.80
2011,01,15,12,14,1.60
2011,01,15,12,15,3.20
2011,01,15,12,16,3.20
2011,01,15,12,17,3.20
2011,01,15,12,18,3.20
2011,01,15,12,19,1.60
2011,01,15,12,20,3.20
2011,01,15,12,21,1.60
2011,01,15,12,22,3.20
2011,01,15,12,23,3.20
2011,01,15,12,30,3.20
2011,01,15,12,31,1.60
2011,01,15,12,32,6.40
2011,01,15,12,33,4.80
2011,01,15,12,34,3.20
2011,01,15,12,35,6.40
2011,01,15,12,36,4.80
2011,01,15,12,37,4.80
2011,01,15,12,38,6.40
2011,01,15,12,39,6.40
2011,01,15,12,40,4.80
2011,01,15,12,41,4.80
2011,01,15,12,42,8.10
2011,01,15,12,43,3.20
2011,01,15,12,44,4.80
2011,01,15,12,45,4.80
2011,01,15,12,46,6.40
2011,01,15,12,48,1.60
2011,01,15,12,49,4.80
2011,01,15,12,50,9.60
2011,01,15,12,51,6.40
2011,01,15,12,52,6.40
2011,01,15,12,53,4.80
2011,01,15,12,54,6.40
2011,01,15,12,55,6.40
2011,01,15,12,56,4.80
2011,01,15,12,57,4.80
2011,01,15,12,58,8.10
2011,01,15,12,59,8.10
2011,01,15,13,00,4.80
2011,01,15,13,01,4.80
2011,01,15,13,02,6.40
2011,01,15,13,03,8.10
2011,01,15,13,04,8.10
2011,01,15,13,05,6.40
2011,01,15,13,06,3.20
2011,01,15,13,07,3.20
2011,01,15,13,08,4.80
2011,01,15,13,09,6.40
2011,01,15,13,10,6.40
2011,01,15,13,11,8.10
2011,01,15,13,12,9.60
2011,01,15,13,13,8.10
2011,01,15,13,14,4.80
2011,01,15,13,15,6.40
2011,01,15,13,16,3.20
2011,01,15,13,18,3.20
2011,01,15,13,19,3.20
2011,01,15,13,20,1.60
2011,01,15,13,23,1.60
2011,01,15,13,30,4.80
2011,01,15,13,31,3.20
2011,01,15,13,32,3.20
2011,01,15,13,33,1.60
2011,01,15,13,34,4.80
2011,01,15,13,35,3.20
2011,01,15,13,36,3.20
2011,01,15,13,37,3.20
2011,01,15,13,38,3.20
2011,01,15,13,53,3.20
2011,01,15,13,54,3.20
2011,01,15,13,55,3.20
2011,01,15,13,56,1.60
2011,01,15,13,57,3.20
2011,01,15,13,58,1.60
2011,01,15,13,59,1.60
2011,01,15,14,00,1.60
2011,01,15,14,04,1.60
2011,01,15,14,08,1.60
2011,01,15,14,27,1.60
2011,01,15,14,28,1.60
2011,01,15,14,36,1.60
2011,01,15,15,10,3.20
2011,01,15,15,11,3.20
2011,01,15,15,18,1.60
2011,01,15,15,19,1.60
2011,01,15,15,20,3.20
2011,01,15,15,21,1.60
2011,01,15,15,22,1.60
2011,01,15,15,23,1.60
2011,01,15,15,28,3.20
2011,01,15,15,29,3.20
2011,01,15,15,30,3.20
2011,01,15,15,31,1.60
2011,01,15,15,32,1.60
2011,01,15,15,43,1.60
2011,01,15,15,45,1.60
2011,01,15,15,49,3.20
2011,01,15,15,50,1.60
2011,01,15,15,52,3.20
2011,01,15,15,53,3.20
2011,01,15,15,54,3.20
2011,01,15,15,55,3.20
2011,01,15,15,58,1.60
2011,01,15,15,59,1.60
2011,01,15,16,00,1.60
2011,01,15,16,01,1.60
2011,01,15,16,05,1.60
2011,01,15,16,07,3.20
2011,01,15,16,08,6.40
2011,01,15,16,09,1.60
2011,01,15,16,10,1.60
2011,01,15,16,15,1.60
2011,01,15,16,16,4.80
2011,01,15,16,17,3.20
2011,01,15,16,18,1.60
2011,01,15,16,19,3.20
2011,01,15,16,20,3.20
2011,01,15,16,21,1.60
2011,01,15,16,22,3.20
2011,01,15,16,23,3.20
2011,01,15,16,24,1.60
2011,01,15,16,25,1.60
2011,01,15,16,26,4.80
2011,01,15,16,27,6.40
2011,01,15,16,28,6.40
2011,01,15,16,29,3.20
2011,01,15,16,30,1.60
2011,01,15,16,31,1.60
2011,01,15,16,32,4.80
2011,01,15,16,33,1.60
2011,01,15,16,34,1.60
2011,01,15,16,35,1.60
2011,01,15,16,36,3.20
2011,01,15,16,37,1.60
2011,01,15,16,44,1.60
2011,01,15,16,45,1.60
2011,01,15,16,46,1.60
2011,01,15,16,48,1.60
2011,01,15,16,51,1.60
2011,01,15,16,52,6.40
2011,01,15,16,53,6.40
2011,01,15,16,54,4.80
2011,01,15,16,55,3.20
2011,01,15,16,56,4.80
2011,01,15,16,57,4.80
2011,01,15,16,58,3.20
2011,01,15,16,59,4.80
2011,01,15,17,00,3.20
2011,01,15,17,01,1.60
2011,01,15,17,02,4.80
2011,01,15,17,03,3.20
2011,01,15,17,04,4.80
2011,01,15,17,05,3.20
2011,01,15,17,06,1.60
2011,01,15,17,07,3.20
2011,01,15,17,08,3.20
2011,01,15,17,12,4.80
2011,01,15,17,13,1.60
2011,01,15,17,14,4.80
2011,01,15,17,15,3.20
2011,01,15,17,16,1.60
2011,01,15,17,17,1.60
2011,01,15,17,18,8.10
2011,01,15,17,19,3.20
2011,01,15,17,20,3.20
2011,01,15,17,21,3.20
2011,01,15,17,23,1.60
2011,01,15,17,24,4.80
2011,01,15,17,25,4.80
2011,01,15,17,26,3.20
2011,01,15,17,27,4.80
2011,01,15,17,28,9.60
2011,01,15,17,29,9.60
2011,01,15,17,30,6.40
2011,01,15,17,31,6.40
2011,01,15,17,32,4.80
2011,01,15,17,33,4.80
2011,01,15,17,34,6.40
2011,01,15,17,35,1.60
2011,01,15,17,36,3.20
2011,01,15,17,37,3.20
2011,01,15,17,38,1.60
2011,01,15,17,40,3.20
2011,01,15,17,41,3.20
2011,01,15,17,42,3.20
2011,01,15,17,43,1.60
2011,01,15,17,44,3.20
2011,01,15,17,45,3.20
2011,01,15,17,46,6.40
2011,01,15,17,47,11.30
2011,01,15,17,48,4.80
2011,01,15,17,49,6.40
2011,01,15,17,50,9.60
2011,01,15,17,51,3.20
2011,01,15,17,52,4.80
2011,01,15,17,53,6.40
2011,01,15,17,54,8.10
2011,01,15,17,55,16.10
2011,01,15,17,56,6.40
2011,01,15,17,57,8.10
2011,01,15,17,58,6.40
2011,01,15,17,59,4.80
2011,01,15,18,00,6.40
2011,01,15,18,01,8.10
2011,01,15,18,02,6.40
2011,01,15,18,03,16.10
2011,01,15,18,04,9.60
2011,01,15,18,05,3.20
2011,01,15,18,06,3.20
2011,01,15,18,07,3.20
2011,01,15,18,08,3.20
2011,01,15,18,09,3.20
2011,01,15,18,10,3.20
2011,01,15,18,11,4.80
2011,01,15,18,12,3.20
2011,01,15,18,13,4.80
2011,01,15,18,14,8.10
2011,01,15,18,15,6.40
2011,01,15,18,16,4.80
2011,01,15,18,17,3.20
2011,01,15,18,18,4.80
2011,01,15,18,19,4.80
2011,01,15,18,20,6.40
2011,01,15,18,21,6.40
2011,01,15,18,22,9.60
2011,01,15,18,23,4.80
2011,01,15,18,24,4.80
2011,01,15,18,25,1.60
2011,01,15,18,26,8.10
2011,01,15,18,27,4.80
2011,01,15,18,28,4.80
2011,01,15,18,29,3.20
2011,01,15,18,30,1.60
2011,01,15,18,31,6.40
2011,01,15,18,32,9.60
2011,01,15,18,33,4.80
2011,01,15,18,34,6.40
2011,01,15,18,35,8.10
2011,01,15,18,36,6.40
2011,01,15,18,37,4.80
2011,01,15,18,38,3.20
2011,01,15,18,39,6.40
2011,01,15,18,40,4.80
2011,01,15,18,41,4.80
2011,01,15,18,42,4.80
2011,01,15,18,44,3.20
2011,01,15,18,45,6.40
2011,01,15,18,46,8.10
2011,01,15,18,47,6.40
2011,01,15,18,48,6.40
2011,01,15,18,49,4.80
2011,01,15,18,50,3.20
2011,01,15,18,51,3.20
2011,01,15,18,52,3.20
2011,01,15,18,53,3.20
2011,01,15,18,54,4.80
2011,01,15,18,55,6.40
2011,01,15,18,56,6.40
2011,01,15,18,57,3.20
2011,01,15,18,58,1.60
2011,01,15,18,59,4.80
2011,01,15,19,00,6.40
2011,01,15,19,01,6.40
2011,01,15,19,02,6.40
2011,01,15,19,03,6.40
2011,01,15,19,04,8.10
2011,01,15,19,05,4.80
2011,01,15,19,06,11.30
2011,01,15,19,07,6.40
2011,01,15,19,08,4.80
2011,01,15,19,09,3.20
2011,01,15,19,10,3.20
2011,01,15,19,11,8.10
2011,01,15,19,12,11.30
2011,01,15,19,13,14.50
2011,01,15,19,14,8.10
2011,01,15,19,15,8.10
2011,01,15,19,16,9.60
2011,01,15,19,17,14.50
2011,01,15,19,18,8.10
2011,01,15,19,19,6.40
2011,01,15,19,20,9.60
2011,01,15,19,21,6.40
2011,01,15,19,22,3.20
2011,01,15,19,23,1.60
2011,01,15,19,25,1.60
2011,01,15,19,26,3.20
2011,01,15,19,27,6.40
2011,01,15,19,28,6.40
2011,01,15,19,29,4.80
2011,01,15,19,30,6.40
2011,01,15,19,31,6.40
2011,01,15,19,32,4.80
2011,01,15,19,33,3.20
2011,01,15,19,35,6.40
2011,01,15,19,36,4.80
2011,01,15,19,37,4.80
2011,01,15,19,38,4.80
2011,01,15,19,39,4.80
2011,01,15,19,40,9.60
2011,01,15,19,41,6.40
2011,01,15,19,42,6.40
2011,01,15,19,43,8.10
2011,01,15,19,44,6.40
2011,01,15,19,45,6.40
2011,01,15,19,46,3.20
2011,01,15,19,47,1.60
2011,01,15,19,48,4.80
2011,01,15,19,49,3.20
2011,01,15,19,50,4.80
2011,01,15,19,51,4.80
2011,01,15,19,52,3.20
2011,01,15,19,53,4.80
2011,01,15,19,54,8.10
2011,01,15,19,55,8.10
2011,01,15,19,56,4.80
2011,01,15,19,57,11.30
2011,01,15,19,58,6.40
2011,01,15,19,59,9.60
2011,01,15,20,00,8.10
2011,01,15,20,01,9.60
2011,01,15,20,02,6.40
2011,01,15,20,03,8.10
2011,01,15,20,04,14.50
2011,01,15,20,05,9.60
2011,01,15,20,06,4.80
2011,01,15,20,07,1.60
2011,01,15,20,08,6.40
2011,01,15,20,09,6.40
2011,01,15,20,10,4.80
2011,01,15,20,11,4.80
2011,01,15,20,12,6.40
2011,01,15,20,13,4.80
2011,01,15,20,14,3.20
2011,01,15,20,15,8.10
2011,01,15,20,16,6.40
2011,01,15,20,17,8.10
2011,01,15,20,18,1.60
2011,01,15,20,19,1.60
2011,01,15,20,21,1.60
2011,01,15,20,22,4.80
2011,01,15,20,23,3.20
2011,01,15,20,24,4.80
2011,01,15,20,25,1.60
2011,01,15,20,28,3.20
2011,01,15,20,29,4.80
2011,01,15,20,30,4.80
2011,01,15,20,31,6.40
2011,01,15,20,32,3.20
2011,01,15,20,33,3.20
2011,01,15,20,34,3.20
2011,01,15,20,35,3.20
2011,01,15,20,36,1.60
2011,01,15,20,37,6.40
2011,01,15,20,38,3.20
2011,01,15,20,39,3.20
2011,01,15,20,40,3.20
2011,01,15,20,41,4.80
2011,01,15,20,42,6.40
2011,01,15,20,43,8.10
2011,01,15,20,44,4.80
2011,01,15,20,47,3.20
2011,01,15,20,48,6.40
2011,01,15,20,49,6.40
2011,01,15,20,50,3.20
2011,01,15,20,51,4.80
2011,01,15,20,52,3.20
2011,01,15,20,53,1.60
2011,01,15,20,54,1.60
2011,01,15,21,03,1.60
2011,01,15,21,06,1.60
2011,01,15,21,07,3.20
2011,01,15,21,08,3.20
2011,01,15,21,09,3.20
2011,01,15,21,15,1.60
2011,01,15,21,22,1.60
2011,01,15,21,26,1.60
2011,01,15,21,31,3.20
2011,01,15,21,32,3.20
2011,01,15,21,33,3.20
2011,01,15,21,34,4.80
2011,01,15,21,35,4.80
2011,01,15,21,36,4.80
2011,01,15,21,37,4.80
2011,01,15,21,38,3.20
2011,01,15,21,39,1.60
2011,01,15,21,40,3.20
2011,01,15,21,41,3.20
2011,01,15,21,42,3.20
2011,01,15,21,43,1.60
2011,01,15,21,44,3.20
2011,01,15,21,45,4.80
2011,01,15,21,46,4.80
2011,01,15,21,47,1.60
2011,01,15,21,49,1.60
2011,01,15,21,51,4.80
2011,01,15,21,52,1.60
2011,01,15,21,54,1.60
2011,01,15,21,55,1.60
2011,01,15,21,56,3.20
2011,01,15,21,57,3.20
2011,01,15,22,19,1.60
2011,01,15,22,20,6.40
2011,01,15,22,21,8.10
2011,01,15,22,22,11.30
2011,01,15,22,23,14.50
2011,01,15,22,24,11.30
2011,01,15,22,25,8.10
2011,01,15,22,26,8.10
2011,01,15,22,27,6.40
2011,01,15,22,28,8.10
2011,01,15,22,29,6.40
2011,01,15,22,30,4.80
2011,01,15,22,31,4.80
2011,01,15,22,32,8.10
2011,01,15,22,33,8.10
2011,01,15,22,34,6.40
2011,01,15,22,35,4.80
2011,01,15,22,36,4.80
2011,01,15,22,37,6.40
2011,01,15,22,38,6.40
2011,01,15,22,39,4.80
2011,01,15,22,40,3.20
2011,01,15,22,41,1.60
2011,01,15,22,44,1.60
2011,01,15,22,45,4.80
2011,01,15,22,50,1.60
2011,01,15,23,06,3.20
2011,01,15,23,07,3.20
2011,01,15,23,08,3.20
2011,01,15,23,09,4.80
2011,01,15,23,10,4.80
2011,01,15,23,11,6.40
2011,01,15,23,12,6.40
2011,01,15,23,13,3.20
2011,01,15,23,14,1.60
2011,01,15,23,24,1.60
2011,01,15,23,25,3.20
2011,01,15,23,26,3.20
2011,01,15,23,27,3.20
2011,01,15,23,28,3.20
2011,01,15,23,37,1.60
2011,01,15,23,38,3.20
2011,01,15,23,39,4.80
2011,01,15,23,40,1.60
2011,01,15,23,42,3.20
2011,01,15,23,43,1.60
2011,01,15,23,44,1.60
2011,01,15,23,46,1.60
2011,01,15,23,47,1.60
2011,01,15,23,48,6.40
2011,01,15,23,49,11.30
2011,01,15,23,50,8.10
2011,01,15,23,51,3.20
2011,01,15,23,52,4.80
2011,01,15,23,53,4.80
2011,01,15,23,54,3.20
2011,01,15,23,55,6.40
2011,01,15,23,56,9.60
2011,01,15,23,57,9.60
2011,01,15,23,58,6.40
